TimeCST,TemperatureF,Dew PointF,Humidity,Sea Level PressureIn,VisibilityMPH,Wind Direction,Wind SpeedMPH,Gust SpeedMPH,PrecipitationIn,Events,Conditions,WindDirDegrees,DateUTC
12:53 AM,45.0,30.9,58,30.06,10.0,Calm,Calm,-,N/A,,Scattered Clouds,0,2013-02-15 06:53:00
1:53 AM,41.0,35.1,79,30.08,10.0,West,5.8,-,N/A,,Overcast,270,2013-02-15 07:53:00
2:53 AM,41.0,33.1,73,30.09,10.0,NW,4.6,-,N/A,,Overcast,310,2013-02-15 08:53:00
3:53 AM,43.0,32.0,65,30.09,10.0,North,11.5,-,N/A,,Overcast,360,2013-02-15 09:53:00
4:53 AM,44.1,28.9,55,30.12,10.0,North,6.9,-,N/A,,Overcast,350,2013-02-15 10:53:00
5:53 AM,42.1,30.0,62,30.15,10.0,NW,3.5,-,N/A,,Overcast,320,2013-02-15 11:53:00
6:53 AM,41.0,30.9,67,30.16,10.0,NW,6.9,-,N/A,,Overcast,320,2013-02-15 12:53:00
7:53 AM,41.0,28.0,60,30.19,10.0,NNW,15.0,21.9,N/A,,Clear,330,2013-02-15 13:53:00
8:53 AM,42.1,28.9,60,30.21,10.0,North,15.0,-,N/A,,Clear,350,2013-02-15 14:53:00
9:53 AM,41.0,28.9,62,30.23,10.0,NNW,15.0,21.9,N/A,,Mostly Cloudy,340,2013-02-15 15:53:00
10:53 AM,42.1,28.0,58,30.23,10.0,North,16.1,-,N/A,,Partly Cloudy,360,2013-02-15 16:53:00
11:53 AM,44.1,26.1,49,30.23,10.0,NNW,13.8,23.0,N/A,,Scattered Clouds,330,2013-02-15 17:53:00
12:53 PM,43.0,23.0,45,30.21,10.0,NNW,8.1,-,N/A,,Partly Cloudy,340,2013-02-15 18:53:00
1:53 PM,44.1,24.1,45,30.21,10.0,NNW,15.0,21.9,N/A,,Scattered Clouds,340,2013-02-15 19:53:00
2:53 PM,44.1,17.1,34,30.21,10.0,North,15.0,-,N/A,,Clear,360,2013-02-15 20:53:00
3:53 PM,43.0,16.0,34,30.22,10.0,NNE,13.8,-,N/A,,Clear,20,2013-02-15 21:53:00
4:53 PM,41.0,16.0,36,30.22,10.0,NNE,13.8,-,N/A,,Clear,20,2013-02-15 22:53:00
5:53 PM,37.4,15.8,41,30.21,10.0,North,10.4,-,N/A,,Clear,10,2013-02-15 23:53:00
6:53 PM,35.6,17.6,48,30.24,10.0,NNE,6.9,-,N/A,,Clear,20,2013-02-16 00:53:00
7:53 PM,32.0,18.0,56,30.25,10.0,North,8.1,-,N/A,,Clear,10,2013-02-16 01:53:00
8:53 PM,30.0,18.0,61,30.25,10.0,North,6.9,-,N/A,,Clear,10,2013-02-16 02:53:00
9:53 PM,30.0,17.1,59,30.25,10.0,Calm,Calm,-,N/A,,Clear,0,2013-02-16 03:53:00
10:53 PM,28.0,19.0,69,30.23,10.0,Calm,Calm,-,N/A,,Clear,0,2013-02-16 04:53:00
11:53 PM,27.0,21.0,78,30.23,10.0,West,3.5,-,N/A,,Clear,270,2013-02-16 05:53:00